SCOUT X-4 DEB, 2986

Orbit data source: Space-Track

SCOUT X-4 DEB, 2986 is space debris in LEO originally from a launch on Thu, 04 Jun 1964 UTC launched from the Air Force Western Test Range (AFWTR). Debris objects in space refer to the collection of defunct objects orbiting the Earth. Examples of debris include non-operational satellites, rocket bodies, and fragments generated from explosions, collisions, or faulty payload assembly.

Loading next visibility...
Identifier
2986, 1964-026E
Orbit
LEO
Country
Flag of USUS
Related business
Manufacturer
Unknown
Mission
Spacecraft
Bus & Motor
Unknown
Mass
Unknown
Launch date (UTC)
1964-06-04 (61 years ago)
Launch vehicle
Unknown
Launch site
Air Force Western Test Range (AFWTR)
Object type
Payload
Rocket body
Debris
Shape & HBR
Unknown
Radar Cross Section
Small (<0.1 m²)

Expand to show TLE details & history
Last TLE update: 11 hours ago

TLE from 11 hours ago
0 SCOUT X-4 DEB
1 02986U 64026E   25260.82211227  .00000163  00000-0  92244-4 0  9998
2 02986  90.4778 177.9618 0046516  14.0320 346.2143 14.06386167136187
Epoch: 2025-09-17T19:43Z
TLE epoch observation values (Epoch: 2025-09-17T19:43:50.5Z)
Latitude
0.00003°
Longitude
-114.99117°
Altitude
842.05 km
Speed
7.448 km/s
True Right ascension
11h 51m 50s
True Declination
0° 00' 00"
Sunlit
Object was in daylight at epoch
Visualization orbit readout
Latitude
Unknown
Longitude
Unknown
Altitude
Unknown
Speed
Unknown
Apparent Right ascension
Unknown
Apparent Declination
Unknown
Sunlit
N/A
Visualization observer readout
Local Sidereal Time
23:30:21
Azimuth
Unknown
Elevation
Unknown
Doppler factor
Unknown
Orbital elements
Apogee altitude
902.443 km
Perigee altitude
835.024 km
Semi-major axis
7,246.87 km
Eccentricity
0.00465
Inclination
90.4778°
RAAN
177.9618°
Arg. of periapsis
14.032°
True anomaly
346.08656°
Mean anomaly
346.2143°
Eccentric anomaly
346.1505°
Mean motion
3.51818 °/min
Orbital period
102.33 mins
BSTAR
0.000092244
Loading maneuver chart data...
Computing Atmospheric mass density...
Loading historical data...
Loading historical data...
Loading historical data...
Loading historical data...
Loading historical data...
Loading historical data...
Loading historical data...

Documentation

Showing up to 5 results
|